When you browse on this site, cookies collect data to enhance your experience and personalize the content and advertising you see.
Visit our Privacy Policy to learn more. By continuing to use the site, you agree to this use of cookies and data.
  • In Hungary
  • List of Countries
  • For 7 days
  • Water Temperature
  • Weather Map
  • News
  • Weather Widgets
  • user-avatar
    Login

    Hourly Weather Jintur

    Today, 17 November, Sunday

    Time Temperature Precipitation Wind Pressure Humidity
    00:00 +23°C° 0 mm 1 mps 721 mmHg 65%
    01:00 +23°C° 0 mm 1 mps 721 mmHg 66%
    02:00 +23°C° 0 mm 1 mps 720 mmHg 67%
    03:00 +23°C° 0 mm 1 mps 720 mmHg 67%
    04:00 +22°C° 0 mm 1 mps 720 mmHg 68%
    05:00 +21°C° 0 mm 2 mps 720 mmHg 74%
    06:00 +23°C° 0 mm 2 mps 721 mmHg 71%
    07:00 +24°C° 0 mm 2 mps 722 mmHg 69%
    08:00 +25°C° 0 mm 2 mps 722 mmHg 67%
    09:00 +27°C° 0 mm 2 mps 722 mmHg 60%
    10:00 +29°C° 0 mm 2 mps 722 mmHg 54%
    11:00 +30°C° 0 mm 2 mps 722 mmHg 47%
    12:00 +31°C° 0 mm 2 mps 722 mmHg 45%
    13:00 +31°C° 0 mm 3 mps 721 mmHg 43%
    14:00 +33°C° 0 mm 3 mps 721 mmHg 40%
    15:00 +30°C° 0 mm 3 mps 720 mmHg 46%
    16:00 +29°C° 0 mm 3 mps 720 mmHg 51%
    17:00 +27°C° 0 mm 3 mps 720 mmHg 56%
    18:00 +26°C° 0 mm 3 mps 721 mmHg 57%
    19:00 +26°C° 0 mm 3 mps 721 mmHg 58%
    20:00 +25°C° 0 mm 3 mps 722 mmHg 59%
    21:00 +24°C° 0 mm 2 mps 721 mmHg 61%
    22:00 +24°C° 0 mm 2 mps 721 mmHg 62%
    23:00 +23°C° 0 mm 2 mps 721 mmHg 63%

    Tomorrow, 18 November, Monday

    Time Temperature Precipitation Wind Pressure Humidity
    00:00 +23°C° 0 mm 2 mps 721 mmHg 65%
    01:00 +21°C° 0 mm 2 mps 720 mmHg 67%
    02:00 +21°C° 0 mm 2 mps 720 mmHg 69%
    03:00 +21°C° 0 mm 2 mps 720 mmHg 69%
    04:00 +20°C° 0 mm 2 mps 720 mmHg 70%
    05:00 +20°C° 0 mm 2 mps 720 mmHg 70%
    06:00 +21°C° 0 mm 2 mps 721 mmHg 68%
    07:00 +23°C° 0 mm 2 mps 721 mmHg 65%
    08:00 +24°C° 0 mm 3 mps 722 mmHg 63%
    09:00 +26°C° 0 mm 3 mps 722 mmHg 57%
    10:00 +28°C° 0 mm 3 mps 722 mmHg 51%
    11:00 +29°C° 0 mm 3 mps 722 mmHg 45%
    12:00 +30°C° 0 mm 3 mps 722 mmHg 43%
    13:00 +30°C° 0 mm 3 mps 721 mmHg 41%
    14:00 +31°C° 0 mm 3 mps 720 mmHg 38%
    15:00 +29°C° 0 mm 3 mps 720 mmHg 43%
    16:00 +28°C° 0 mm 3 mps 720 mmHg 48%
    17:00 +26°C° 0 mm 2 mps 720 mmHg 53%
    18:00 +25°C° 0 mm 2 mps 720 mmHg 54%
    19:00 +24°C° 0 mm 2 mps 720 mmHg 56%
    20:00 +23°C° 0 mm 2 mps 721 mmHg 58%
    21:00 +23°C° 0 mm 2 mps 721 mmHg 59%
    22:00 +23°C° 0 mm 1 mps 720 mmHg 59%
    23:00 +22°C° 0 mm 1 mps 720 mmHg 60%

    Day after tomorrow, 19 November, Tuesday

    Time Temperature Precipitation Wind Pressure Humidity
    00:00 +22°C° 0 mm 1 mps 720 mmHg 61%
    01:00 +21°C° 0 mm 1 mps 720 mmHg 62%
    02:00 +21°C° 0 mm 1 mps 719 mmHg 63%
    03:00 +21°C° 0 mm 1 mps 719 mmHg 64%
    04:00 +21°C° 0 mm 1 mps 719 mmHg 65%
    05:00 +19°C° 0 mm 2 mps 719 mmHg 65%
    06:00 +20°C° 0 mm 2 mps 720 mmHg 63%
    07:00 +23°C° 0 mm 2 mps 721 mmHg 60%
    08:00 +24°C° 0 mm 2 mps 722 mmHg 58%
    09:00 +26°C° 0 mm 2 mps 721 mmHg 53%
    10:00 +27°C° 0 mm 2 mps 721 mmHg 48%
    11:00 +29°C° 0 mm 2 mps 721 mmHg 43%
    12:00 +29°C° 0 mm 2 mps 721 mmHg 41%
    13:00 +30°C° 0 mm 2 mps 720 mmHg 40%
    14:00 +31°C° 0 mm 2 mps 719 mmHg 38%
    15:00 +29°C° 0 mm 2 mps 719 mmHg 43%
    16:00 +28°C° 0 mm 2 mps 719 mmHg 48%
    17:00 +27°C° 0 mm 2 mps 719 mmHg 53%
    18:00 +26°C° 0 mm 2 mps 719 mmHg 56%
    19:00 +25°C° 0 mm 2 mps 720 mmHg 58%
    20:00 +24°C° 0 mm 2 mps 720 mmHg 61%
    21:00 +23°C° 0 mm 2 mps 720 mmHg 62%
    22:00 +23°C° 0 mm 2 mps 720 mmHg 63%
    23:00 +21°C° 0 mm 2 mps 720 mmHg 65%

    20 November, Wednesday

    Time Temperature Precipitation Wind Pressure Humidity
    00:00 +22°C° 0 mm 1 mps 719 mmHg 65%
    01:00 +22°C° 0 mm 1 mps 719 mmHg 66%
    02:00 +21°C° 0 mm 1 mps 719 mmHg 67%
    03:00 +21°C° 0 mm 1 mps 719 mmHg 67%
    04:00 +21°C° 0 mm 1 mps 719 mmHg 67%
    05:00 +21°C° 0 mm 1 mps 719 mmHg 67%
    06:00 +22°C° 0 mm 1 mps 719 mmHg 64%
    07:00 +23°C° 0 mm 2 mps 720 mmHg 61%
    08:00 +24°C° 0 mm 2 mps 721 mmHg 57%
    09:00 +26°C° 0 mm 2 mps 721 mmHg 53%
    10:00 +27°C° 0 mm 3 mps 721 mmHg 49%
    11:00 +28°C° 0 mm 3 mps 721 mmHg 44%
    12:00 +29°C° 0 mm 3 mps 720 mmHg 43%
    13:00 +30°C° 0 mm 3 mps 720 mmHg 42%
    14:00 +30°C° 0 mm 3 mps 719 mmHg 41%
    15:00 +29°C° 0 mm 2 mps 719 mmHg 46%
    16:00 +28°C° 0 mm 2 mps 719 mmHg 51%
    17:00 +27°C° 0 mm 2 mps 719 mmHg 55%
    18:00 +26°C° 0 mm 2 mps 719 mmHg 57%
    19:00 +25°C° 0 mm 2 mps 720 mmHg 59%
    20:00 +24°C° 0 mm 3 mps 720 mmHg 60%
    21:00 +23°C° 0 mm 2 mps 720 mmHg 61%
    22:00 +23°C° 0 mm 2 mps 720 mmHg 62%
    23:00 +23°C° 0 mm 2 mps 720 mmHg 63%

    21 November, Thursday

    Time Temperature Precipitation Wind Pressure Humidity
    00:00 +21°C° 0 mm 2 mps 720 mmHg 64%
    01:00 +21°C° 0 mm 2 mps 720 mmHg 66%
    02:00 +20°C° 0 mm 2 mps 720 mmHg 67%
    03:00 +20°C° 0 mm 2 mps 720 mmHg 69%
    04:00 +20°C° 0 mm 2 mps 720 mmHg 71%
    05:00 +21°C° 0 mm 1 mps 720 mmHg 73%
    06:00 +21°C° 0 mm 2 mps 721 mmHg 71%
    07:00 +23°C° 0 mm 2 mps 721 mmHg 69%
    08:00 +24°C° 0 mm 2 mps 722 mmHg 67%
    09:00 +25°C° 0 mm 2 mps 722 mmHg 61%
    10:00 +27°C° 0 mm 2 mps 722 mmHg 55%
    11:00 +28°C° 0 mm 3 mps 722 mmHg 49%
    12:00 +29°C° 0 mm 2 mps 721 mmHg 47%
    13:00 +30°C° 0 mm 2 mps 721 mmHg 44%
    14:00 +30°C° 0 mm 2 mps 720 mmHg 42%
    15:00 +29°C° 0 mm 2 mps 720 mmHg 46%
    16:00 +28°C° 0 mm 2 mps 720 mmHg 50%
    17:00 +27°C° 0 mm 2 mps 720 mmHg 54%
    18:00 +26°C° 0 mm 2 mps 720 mmHg 56%
    19:00 +25°C° 0 mm 2 mps 721 mmHg 58%
    20:00 +24°C° 0 mm 2 mps 721 mmHg 59%
    21:00 +24°C° 0 mm 2 mps 721 mmHg 60%
    22:00 +23°C° 0 mm 2 mps 721 mmHg 61%
    23:00 +23°C° 0 mm 2 mps 721 mmHg 61%

    22 November, Friday

    Time Temperature Precipitation Wind Pressure Humidity
    00:00 +21°C° 0 mm 2 mps 721 mmHg 63%
    01:00 +21°C° 0 mm 2 mps 721 mmHg 64%
    02:00 +21°C° 0 mm 1 mps 720 mmHg 66%
    03:00 +21°C° 0 mm 1 mps 720 mmHg 67%
    04:00 +21°C° 0 mm 1 mps 720 mmHg 67%
    05:00 +21°C° 0 mm 1 mps 720 mmHg 68%
    06:00 +22°C° 0 mm 1 mps 721 mmHg 65%
    07:00 +23°C° 0 mm 1 mps 722 mmHg 62%
    08:00 +24°C° 0 mm 2 mps 722 mmHg 58%
    09:00 +26°C° 0 mm 2 mps 722 mmHg 53%
    10:00 +27°C° 0 mm 2 mps 722 mmHg 48%
    11:00 +29°C° 0 mm 2 mps 722 mmHg 42%
    12:00 +29°C° 0 mm 2 mps 722 mmHg 40%
    13:00 +30°C° 0 mm 2 mps 721 mmHg 38%
    14:00 +30°C° 0 mm 2 mps 720 mmHg 36%
    15:00 +29°C° 0 mm 2 mps 720 mmHg 40%
    16:00 +28°C° 0 mm 2 mps 720 mmHg 44%
    17:00 +27°C° 0 mm 2 mps 720 mmHg 48%
    18:00 +26°C° 0 mm 2 mps 720 mmHg 50%
    19:00 +25°C° 0 mm 2 mps 721 mmHg 52%
    20:00 +24°C° 0 mm 2 mps 721 mmHg 55%
    21:00 +23°C° 0 mm 2 mps 721 mmHg 55%
    22:00 +23°C° 0 mm 1 mps 721 mmHg 56%
    23:00 +22°C° 0 mm 1 mps 721 mmHg 57%
    Show more